Location: Unspecified
(0.0000°N, 0.0000°E)
Time: 11:49:54
(UTC+02:00)

NOAA 12 - Visible Passes

Search period start: 01 August 2014 00:00
Search period end: 11 August 2014 00:00
Orbit: 795 x 817 km, 98.7° (Epoch: 31 July)

Date Brightness Start Highest point End Pass type
(mag) Time Alt. Az. Time Alt. Az. Time Alt. Az.
01 Aug 5.0 21:36:30 10° S 21:41:35 48° WSW 21:46:38 10° NNW visible
02 Aug 4.0 21:11:32 10° SSE 21:16:51 85° ENE 21:22:06 10° N visible
03 Aug 4.5 20:47:07 10° SSE 20:52:06 42° ENE 20:57:01 10° N visible
03 Aug 6.9 22:29:44 10° SW 22:31:34 12° WSW 22:33:25 10° W visible
04 Aug 6.1 22:02:40 10° SSW 22:06:52 24° WSW 22:11:02 10° NW visible
05 Aug 5.0 21:37:04 10° S 21:42:08 47° WSW 21:47:09 10° NNW visible
06 Aug 4.0 21:12:05 10° SSE 21:17:23 86° ENE 21:22:38 10° N visible
07 Aug 4.5 20:47:39 10° SSE 20:52:38 43° ENE 20:57:34 10° N visible
07 Aug 6.9 22:30:24 10° WSW 22:32:07 12° WSW 22:33:50 10° W visible
08 Aug 6.2 22:03:15 10° SSW 22:07:24 24° WSW 22:11:32 10° NW visible
09 Aug 5.0 21:37:37 10° S 21:42:40 47° WSW 21:47:41 10° NNW visible
10 Aug 4.0 21:12:38 10° SSE 21:17:55 87° ENE 21:23:10 10° NNW visible
